This is the latest recevied weather packets stored in our database for station/object N8TWM-13. If no packets are shown the sender has not sent any weather packets the latest 10 day(s).
| Time | Temp. | Humidity | Pressure | Rain* | Wind** | Luminosity | Snow |
|---|---|---|---|---|---|---|---|
| 1777757453 | 6.11° C | 72% | 1016.8 hPa | 0 mm | - | 232 W/m² | - |
| 1777757152 | 6.11° C | 75% | 1016.6 hPa | 0 mm | - | 224 W/m² | - |
| 1777756849 | 6.11° C | 74% | 1016.8 hPa | 0 mm | - | 359 W/m² | - |
| 1777756545 | 5° C | 77% | 1017 hPa | 0 mm | - | 265 W/m² | - |
| 1777756242 | 5.56° C | 79% | 1016.8 hPa | 0 mm | - | 253 W/m² | - |
| 1777755939 | 5° C | 80% | 1017 hPa | 0 mm | - | 217 W/m² | - |
| 1777755636 | 4.44° C | 81% | 1016.6 hPa | 0 mm | - | 131 W/m² | - |
| 1777755333 | 4.44° C | 82% | 1016.8 hPa | 0 mm | - | 107 W/m² | - |
| 1777755030 | 3.89° C | 82% | 1017 hPa | 0 mm | - | 112 W/m² | - |
| 1777754727 | 3.89° C | 83% | 1017 hPa | 0 mm | - | 124 W/m² | - |
| 1777754425 | 3.33° C | 84% | 1016.9 hPa | 0 mm | - | 136 W/m² | - |
| 1777754121 | 3.33° C | 84% | 1017.1 hPa | 0 mm | - | 113 W/m² | - |
| 1777753818 | 3.33° C | 84% | 1017.1 hPa | 1.27 mm | - | 81 W/m² | - |
| 1777753514 | 3.33° C | 83% | 1017.2 hPa | 1.27 mm | - | 64 W/m² | - |
| 1777753213 | 3.89° C | 81% | 1017.2 hPa | 1.27 mm | - | 42 W/m² | - |
| 1777752909 | 3.89° C | 79% | 1017.2 hPa | 0 mm | - | 38 W/m² | - |
| 1777752605 | 4.44° C | 78% | 1017.3 hPa | 0 mm | - | 49 W/m² | - |
| 1777752301 | 4.44° C | 77% | 1017.3 hPa | 0 mm | - | 61 W/m² | - |
| 1777751999 | 4.44° C | 76% | 1017.3 hPa | 0 mm | - | 66 W/m² | - |
| 1777751696 | 4.44° C | 76% | 1017.4 hPa | 0 mm | - | 109 W/m² | - |
| 1777751392 | 4.44° C | 77% | 1017.4 hPa | 0 mm | - | 149 W/m² | - |
| 1777751089 | 4.44° C | 76% | 1017.5 hPa | 0 mm | - | 127 W/m² | - |
| 1777750784 | 4.44° C | 78% | 1017.4 hPa | 0 mm | - | 158 W/m² | - |
| 1777750483 | 4.44° C | 79% | 1017.5 hPa | 0 mm | - | 215 W/m² | - |
| 1777750178 | 4.44° C | 81% | 1017.5 hPa | 0 mm | - | 232 W/m² | - |
* Rain latest hour (hover to see other rain measurements)
** Current wind speed in m/s (hover to see current wind gust speed)